�N����,����,�~����,�C��,���x,�C��,����,���ϕ���,�ő�u�ԕ���,�ő厞����,���˗�,�I�_���x,�n�����x,�ő啗���N��,DTYPE
"18/01/23","00:10",0.0,1.3,98.8,1003.8,322.7,2.3,3.4,320.5,0.00,1.2,4.6,"00:04:28",1
"18/01/23","00:20",0.0,1.5,98.2,1004.3,295.0,2.3,4.1,320.6,0.00,1.3,4.7,"00:13:22",1
"18/01/23","00:30",0.0,1.6,98.3,1004.3,308.1,2.3,3.2,314.6,0.00,1.4,4.7,"00:28:12",1
"18/01/23","00:40",0.0,1.8,98.3,1004.3,320.6,2.6,4.1,322.5,0.00,1.6,4.7,"00:38:18",1
"18/01/23","00:50",0.0,1.9,98.2,1004.1,321.7,2.8,4.0,318.0,0.00,1.7,4.4,"00:48:30",1
"18/01/23","01:00",0.0,2.0,97.9,1003.8,324.4,3.1,4.0,314.0,0.00,1.7,4.7,"00:53:36",1
"18/01/23","01:10",0.0,1.9,98.5,1004.3,324.3,3.5,5.6,330.8,0.00,1.7,4.8,"01:09:52",1
"18/01/23","01:20",0.0,2.2,97.5,1004.3,304.6,3.1,5.1,325.1,0.00,1.9,4.8,"01:10:24",1
"18/01/23","01:30",0.0,2.1,98.1,1004.8,300.2,3.1,4.3,303.3,0.00,1.9,4.7,"01:24:16",1
"18/01/23","01:40",0.0,2.3,97.0,1004.5,299.7,3.0,4.2,320.9,0.00,1.9,4.7,"01:32:04",1
"18/01/23","01:50",0.0,2.2,97.6,1004.8,305.8,2.1,3.4,306.6,0.00,1.9,4.8,"01:42:16",1
"18/01/23","02:00",0.0,2.3,97.5,1004.8,287.3,1.8,2.2,263.9,0.00,2.0,4.7,"01:55:16",1
"18/01/23","02:10",0.0,2.4,97.4,1004.8,312.0,1.6,2.1,323.6,0.00,2.1,4.9,"02:02:24",1
"18/01/23","02:20",0.0,2.5,97.2,1004.5,277.7,1.7,1.8,268.7,0.00,2.1,4.8,"02:15:34",1
"18/01/23","02:30",0.0,2.6,96.8,1004.5,280.7,1.7,2.7,314.9,0.00,2.2,4.9,"02:29:14",1
"18/01/23","02:40",0.0,2.8,96.4,1004.8,279.7,3.7,7.3,303.8,0.00,2.3,5.0,"02:37:32",1
"18/01/23","02:50",0.0,2.9,95.7,1004.8,287.8,2.8,6.5,335.1,0.00,2.3,4.7,"02:43:08",1
"18/01/23","03:00",0.0,3.0,95.3,1004.8,272.9,2.6,4.3,323.9,0.00,2.4,4.8,"02:54:16",1
"18/01/23","03:10",0.0,3.0,95.0,1005.2,269.4,2.2,3.7,283.0,0.00,2.3,4.8,"03:05:12",1
"18/01/23","03:20",0.0,3.0,94.7,1004.5,273.4,2.6,4.3,280.6,0.00,2.3,4.8,"03:12:02",1
"18/01/23","03:30",0.0,3.1,94.4,1004.8,270.6,2.1,4.0,240.9,0.00,2.3,4.7,"03:25:54",1
"18/01/23","03:40",0.0,3.1,94.2,1004.3,275.6,1.7,4.1,289.4,0.00,2.3,4.9,"03:32:08",1
"18/01/23","03:50",0.0,3.2,94.0,1003.8,280.2,1.6,2.5,298.5,0.00,2.4,4.7,"03:42:00",1
"18/01/23","04:00",0.0,3.2,94.0,1004.1,281.5,1.2,2.1,284.5,0.00,2.4,4.8,"03:52:00",1
"18/01/23","04:10",0.0,3.2,94.2,1003.8,314.5,1.8,2.5,332.5,0.00,2.4,4.8,"04:06:42",1
"18/01/23","04:20",0.0,3.1,94.4,1004.3,315.5,2.2,3.6,336.1,0.00,2.3,4.7,"04:16:42",1
"18/01/23","04:30",0.0,3.1,94.7,1003.8,324.8,2.2,3.1,317.0,0.00,2.4,4.7,"04:27:52",1
"18/01/23","04:40",0.0,3.1,94.8,1004.1,329.2,1.7,2.6,330.9,0.00,2.4,4.9,"04:31:04",1
"18/01/23","04:50",0.0,3.2,95.1,1004.1,311.3,1.5,2.5,321.2,0.00,2.5,4.9,"04:49:04",1
"18/01/23","05:00",0.0,3.2,95.1,1003.8,308.1,1.3,2.4,332.1,0.00,2.5,4.8,"04:50:32",1
"18/01/23","05:10",0.0,3.3,95.4,1004.1,314.3,1.3,1.7,320.1,0.00,2.7,4.9,"05:04:08",1
"18/01/23","05:20",0.0,3.3,95.6,1003.8,328.7,1.5,1.8,330.3,0.00,2.7,5.0,"05:17:04",1
"18/01/23","05:30",0.0,3.3,95.9,1003.8,318.1,1.0,1.6,327.7,0.00,2.7,5.0,"05:20:24",1
"18/01/23","05:40",0.0,3.3,96.1,1003.6,309.4,1.1,1.4,322.6,0.00,2.8,5.1,"05:30:24",1
"18/01/23","05:50",0.0,3.3,96.4,1003.8,282.4,1.0,1.6,310.5,0.00,2.8,5.1,"05:46:56",1
"18/01/23","06:00",0.0,3.2,96.7,1003.8,249.5,0.6,1.7,202.1,0.00,2.8,4.8,"05:59:44",1
"18/01/23","06:10",0.0,3.2,97.0,1003.8,232.8,1.0,1.4,239.7,0.00,2.8,4.8,"06:02:54",1
"18/01/23","06:20",0.0,3.2,97.2,1004.1,257.0,0.6,1.2,191.4,0.00,2.8,5.1,"06:10:24",1
"18/01/23","06:30",0.0,3.2,97.2,1003.8,244.6,0.5,1.0,260.7,0.00,2.8,5.1,"06:20:16",1
"18/01/23","06:40",0.0,3.3,97.3,1003.6,304.9,1.1,1.6,302.7,0.00,3.0,5.0,"06:31:52",1
"18/01/23","06:50",0.0,3.2,97.4,1003.8,274.2,0.5,1.1,289.4,0.00,2.9,5.0,"06:40:08",1
"18/01/23","07:00",0.0,3.2,97.6,1004.1,309.6,0.8,1.7,316.4,0.00,2.9,4.9,"06:51:04",1
"18/01/23","07:10",0.0,3.3,97.8,1004.1,337.5,1.1,1.8,343.5,0.00,3.0,5.0,"07:09:44",1
"18/01/23","07:20",0.0,3.4,97.9,1003.8,326.8,1.1,1.9,333.2,0.00,3.1,5.0,"07:13:36",1
"18/01/23","07:30",0.0,3.3,98.0,1003.8,319.7,1.0,2.1,321.7,0.00,3.1,5.1,"07:21:12",1
"18/01/23","07:40",0.0,3.5,97.4,1003.8,333.3,1.1,1.9,334.3,0.00,3.2,5.2,"07:33:20",1
"18/01/23","07:50",0.0,3.4,98.2,1003.8,306.6,1.1,1.8,320.8,0.00,3.2,5.1,"07:41:52",1
"18/01/23","08:00",0.0,3.6,97.5,1003.8,291.9,0.8,1.6,258.4,0.00,3.3,5.3,"07:59:32",1
"18/01/23","08:10",0.0,3.5,98.2,1004.1,284.3,1.2,1.6,277.4,0.00,3.3,5.1,"08:09:52",1
"18/01/23","08:20",0.2,3.7,97.6,1004.3,323.0,1.5,2.5,319.9,0.00,3.4,5.2,"08:13:30",1
"18/01/23","08:30",0.0,3.7,98.5,1004.3,318.0,1.5,2.2,319.3,0.00,3.5,5.3,"08:22:30",1
"18/01/23","08:40",0.0,4.3,97.9,1004.3,327.4,2.6,3.9,325.0,0.01,4.0,5.3,"08:34:08",1
"18/01/23","08:50",0.0,5.2,97.9,1004.3,317.7,2.3,3.3,334.0,0.09,4.9,5.2,"08:49:56",1
"18/01/23","09:00",0.0,6.0,94.8,1004.5,317.8,2.7,4.9,318.7,0.15,5.3,5.3,"08:52:16",1
"18/01/23","09:10",0.0,6.2,91.7,1004.5,319.6,2.2,3.3,318.4,0.15,5.0,5.6,"09:08:30",1
"18/01/23","09:20",0.0,6.7,91.1,1005.0,312.6,2.6,4.9,340.2,0.16,5.4,5.7,"09:11:28",1
"18/01/23","09:30",0.0,7.0,88.4,1005.5,306.4,2.7,5.0,333.7,0.18,5.3,5.8,"09:24:32",1
"18/01/23","09:40",0.0,7.2,86.0,1005.5,278.5,2.5,4.9,322.4,0.21,5.1,5.8,"09:38:48",1
"18/01/23","09:50",0.0,7.3,85.7,1005.7,301.1,3.4,6.2,314.5,0.22,5.1,6.2,"09:41:52",1
"18/01/23","10:00",0.0,7.3,84.2,1006.2,287.2,3.6,7.4,342.3,0.24,4.9,5.9,"09:58:00",1
"18/01/23","10:10",0.0,7.7,82.6,1006.0,297.8,3.5,6.2,346.1,0.27,5.0,6.2,"10:07:28",1
"18/01/23","10:20",0.0,7.9,80.5,1006.0,306.4,3.2,6.6,334.0,0.28,4.8,6.2,"10:10:40",1
"18/01/23","10:30",0.0,8.5,78.8,1005.5,294.9,2.8,5.4,341.1,0.30,5.1,6.5,"10:23:12",1
"18/01/23","10:40",0.0,8.7,77.5,1006.0,286.5,2.7,6.0,339.9,0.37,5.0,6.5,"10:33:36",1
"18/01/23","10:50",0.0,8.7,75.2,1006.0,279.7,2.7,5.1,299.4,0.40,4.6,6.7,"10:42:40",1
"18/01/23","11:00",0.0,9.1,72.6,1005.2,283.4,2.3,5.4,228.4,0.41,4.5,6.9,"10:57:44",1
"18/01/23","11:10",0.0,9.3,67.7,1005.5,279.8,3.0,8.1,311.7,0.41,3.7,7.2,"11:04:24",1
"18/01/23","11:20",0.0,9.0,68.0,1005.2,288.5,3.4,7.1,181.2,0.37,3.5,7.2,"11:13:44",1
"18/01/23","11:30",0.0,8.8,65.7,1005.0,283.0,3.6,7.2,310.3,0.30,2.8,7.4,"11:28:24",1
"18/01/23","11:40",0.0,8.7,64.2,1005.0,260.8,4.2,9.0,250.2,0.16,2.4,7.2,"11:37:36",1
"18/01/23","11:50",0.0,9.0,60.4,1004.8,276.7,3.6,6.2,279.2,0.29,1.8,7.4,"11:42:40",1
"18/01/23","12:00",0.0,9.6,58.4,1004.3,267.6,3.1,6.4,236.9,0.39,1.9,7.6,"11:59:36",1
"18/01/23","12:10",0.0,9.5,53.4,1004.1,292.7,4.4,10.4,334.3,0.39,0.5,7.5,"12:06:48",1
"18/01/23","12:20",0.0,9.5,51.5,1004.3,298.6,5.0,11.9,341.6,0.39,0.0,7.7,"12:14:00",1
"18/01/23","12:30",0.0,8.8,54.3,1004.1,291.4,4.4,7.7,332.1,0.22,0.1,7.8,"12:27:20",1
"18/01/23","12:40",0.0,8.5,55.5,1004.1,313.0,4.6,10.6,335.8,0.22,0.1,7.9,"12:38:40",1
"18/01/23","12:50",0.0,8.7,57.7,1004.3,306.7,4.0,7.5,317.9,0.22,0.9,7.9,"12:46:24",1
"18/01/23","13:00",0.0,8.8,52.8,1004.1,299.8,4.4,7.5,250.2,0.36,-0.3,7.9,"12:52:24",1
"18/01/23","13:10",0.0,9.2,52.0,1003.8,284.8,3.9,10.0,314.2,0.37,-0.1,8.0,"13:07:20",1
"18/01/23","13:20",0.0,9.1,47.7,1004.1,280.8,4.4,10.2,324.2,0.33,-1.4,7.9,"13:12:24",1
"18/01/23","13:30",0.0,8.5,47.7,1003.8,276.7,4.5,9.8,326.0,0.16,-1.9,8.1,"13:27:22",1
"18/01/23","13:40",0.0,8.3,48.0,1004.3,287.4,4.1,8.5,296.7,0.12,-2.0,7.7,"13:34:32",1
"18/01/23","13:50",0.0,8.4,50.0,1004.5,294.8,4.1,7.8,314.9,0.14,-1.4,7.7,"13:41:52",1
"18/01/23","14:00",0.0,8.2,53.4,1004.3,314.5,4.0,9.7,339.7,0.15,-0.7,7.8,"13:52:56",1
"18/01/23","14:10",0.0,8.5,55.2,1004.3,314.6,3.1,6.5,343.0,0.20,0.1,8.1,"14:01:28",1
"18/01/23","14:20",0.0,8.9,49.4,1004.1,319.3,2.7,7.5,326.4,0.34,-1.1,8.1,"14:15:12",1
"18/01/23","14:30",0.0,9.0,46.4,1004.1,293.6,3.6,11.3,228.0,0.32,-1.8,8.1,"14:28:32",1
"18/01/23","14:40",0.0,8.7,47.5,1004.1,296.1,4.2,9.4,318.6,0.22,-1.8,8.3,"14:34:24",1
"18/01/23","14:50",0.0,8.7,54.4,1004.1,305.1,2.8,8.2,334.3,0.19,0.1,8.0,"14:41:20",1
"18/01/23","15:00",0.0,8.7,48.3,1004.5,293.8,4.2,9.0,321.5,0.18,-1.6,8.1,"14:58:54",1
"18/01/23","15:10",0.0,8.1,52.7,1004.5,330.0,4.7,8.3,341.7,0.13,-0.9,7.9,"15:02:08",1
"18/01/23","15:20",0.0,7.9,46.5,1004.8,324.3,4.7,8.7,338.5,0.12,-2.8,8.1,"15:18:50",1
"18/01/23","15:30",0.0,7.8,49.4,1004.3,307.5,3.7,6.5,330.5,0.09,-2.1,8.1,"15:22:40",1
"18/01/23","15:40",0.0,7.5,52.8,1004.8,332.5,3.2,6.6,331.8,0.07,-1.5,7.9,"15:37:04",1
"18/01/23","15:50",0.0,7.0,51.7,1004.8,315.4,4.0,7.3,320.0,0.03,-2.2,8.0,"15:42:40",1
"18/01/23","16:00",0.0,7.0,48.5,1004.8,319.5,4.0,7.5,349.2,0.04,-3.1,7.7,"15:52:16",1
"18/01/23","16:10",0.0,6.7,51.0,1004.8,331.0,3.6,6.4,342.5,0.03,-2.7,7.6,"16:06:24",1
"18/01/23","16:20",0.0,6.4,50.0,1004.8,321.8,3.6,6.6,343.4,0.04,-3.2,7.6,"16:10:56",1
"18/01/23","16:30",0.0,6.1,49.1,1004.5,329.9,4.0,7.3,338.7,0.03,-3.7,7.5,"16:22:56",1
"18/01/23","16:40",0.0,5.8,45.5,1005.0,320.7,4.4,8.1,327.4,0.03,-5.0,7.4,"16:31:20",1
"18/01/23","16:50",0.0,5.5,43.7,1005.5,323.5,3.7,8.2,320.4,0.00,-5.8,7.3,"16:46:32",1
"18/01/23","17:00",0.0,5.2,42.7,1005.2,323.2,4.0,9.3,321.4,0.00,-6.4,7.3,"16:50:32",1
"18/01/23","17:10",0.0,4.9,40.2,1005.7,309.7,3.2,5.4,320.8,0.00,-7.5,7.2,"17:06:42",1
"18/01/23","17:20",0.0,4.6,40.2,1005.5,320.0,3.6,7.9,329.9,0.00,-7.7,6.8,"17:12:00",1
"18/01/23","17:30",0.0,4.4,41.0,1006.0,308.5,3.6,6.7,344.2,0.00,-7.7,6.9,"17:29:48",1
"18/01/23","17:40",0.0,4.2,45.8,1006.2,324.2,4.6,7.3,325.2,0.00,-6.4,6.9,"17:31:52",1
"18/01/23","17:50",0.0,3.7,50.5,1006.2,328.1,3.1,6.5,304.7,0.00,-5.6,6.7,"17:41:28",1
"18/01/23","18:00",0.0,3.2,57.1,1006.2,328.9,2.8,4.9,329.5,0.00,-4.4,6.6,"17:54:16",1
"18/01/23","18:10",0.0,2.8,60.9,1006.4,327.7,2.7,5.1,311.5,0.00,-4.0,6.5,"18:04:58",1
"18/01/23","18:20",0.0,2.6,62.3,1006.2,321.2,3.1,5.5,333.7,0.00,-3.8,6.2,"18:12:48",1
"18/01/23","18:30",0.0,2.4,62.6,1006.0,311.8,2.7,5.8,326.1,0.00,-4.0,6.2,"18:29:38",1
"18/01/23","18:40",0.0,2.4,60.5,1006.2,326.6,4.0,5.9,324.8,0.00,-4.4,6.2,"18:37:44",1
"18/01/23","18:50",0.0,2.2,60.3,1006.4,317.0,4.2,6.6,315.5,0.00,-4.6,6.1,"18:42:08",1
"18/01/23","19:00",0.0,2.1,61.1,1006.4,307.6,3.7,5.2,315.7,0.00,-4.6,5.9,"18:52:34",1
"18/01/23","19:10",0.0,1.8,61.4,1006.0,296.3,3.0,5.8,336.7,0.00,-4.8,5.9,"19:00:14",1
"18/01/23","19:20",0.0,1.8,61.3,1006.7,286.5,3.0,5.2,295.3,0.00,-4.8,5.8,"19:12:16",1
"18/01/23","19:30",0.0,1.6,61.9,1006.4,284.5,2.7,4.2,295.6,0.00,-4.9,5.9,"19:27:28",1
"18/01/23","19:40",0.0,1.4,63.5,1006.9,275.4,2.3,3.2,293.8,0.00,-4.7,5.6,"19:31:20",1
"18/01/23","19:50",0.0,1.3,63.9,1006.7,274.5,2.0,2.8,272.3,0.00,-4.7,5.6,"19:48:16",1
"18/01/23","20:00",0.0,1.2,64.3,1006.9,282.8,2.1,3.1,316.0,0.00,-4.7,5.6,"19:52:00",1
"18/01/23","20:10",0.0,1.0,65.4,1006.9,281.6,2.0,2.8,282.0,0.00,-4.7,5.5,"20:00:16",1
"18/01/23","20:20",0.0,0.7,67.8,1006.4,302.6,2.3,4.3,263.6,0.00,-4.5,5.5,"20:12:56",1
"18/01/23","20:30",0.0,-0.1,71.1,1006.4,302.6,1.2,2.0,327.7,0.00,-4.7,5.4,"20:21:28",1
"18/01/23","20:40",0.0,-0.4,73.4,1006.4,286.1,1.0,1.6,299.4,0.00,-4.5,5.3,"20:34:16",1
"18/01/23","20:50",0.0,-0.4,75.1,1006.7,325.3,2.1,3.4,336.7,0.00,-4.2,5.1,"20:49:04",1
"18/01/23","21:00",0.0,-0.2,74.8,1006.4,327.0,3.2,4.5,333.8,0.00,-4.1,5.1,"20:56:32",1
"18/01/23","21:10",0.0,-0.3,74.7,1006.9,317.6,2.2,4.7,341.6,0.00,-4.2,4.8,"21:07:28",1
"18/01/23","21:20",0.0,-0.1,72.2,1006.7,328.9,3.5,5.0,332.4,0.00,-4.5,4.9,"21:15:46",1
"18/01/23","21:30",0.0,-0.1,69.2,1006.9,317.4,2.3,3.9,334.6,0.00,-5.0,4.8,"21:20:24",1
"18/01/23","21:40",0.0,-0.2,71.7,1006.9,248.6,1.6,2.5,248.6,0.00,-4.6,4.8,"21:31:44",1
"18/01/23","21:50",0.0,-0.2,71.7,1006.9,277.8,1.2,1.9,239.0,0.00,-4.6,4.8,"21:42:56",1
"18/01/23","22:00",0.0,0.0,69.0,1007.1,278.2,1.5,2.7,303.8,0.00,-5.0,4.8,"21:55:30",1
"18/01/23","22:10",0.0,-0.1,67.3,1006.9,307.8,1.6,3.5,313.9,0.00,-5.4,4.6,"22:00:40",1
"18/01/23","22:20",0.0,-0.5,70.0,1007.1,314.5,1.3,2.4,318.8,0.00,-5.3,4.5,"22:14:00",1
"18/01/23","22:30",0.0,-0.6,71.7,1007.4,298.3,1.0,2.1,343.0,0.00,-5.0,4.8,"22:20:40",1
"18/01/23","22:40",0.0,-0.7,72.6,1006.9,307.6,1.1,1.7,322.0,0.00,-5.0,4.4,"22:37:36",1
"18/01/23","22:50",0.0,-0.9,73.1,1006.7,314.9,1.3,1.9,319.4,0.00,-5.1,4.3,"22:49:20",1
"18/01/23","23:00",0.0,-1.1,75.1,1007.1,305.2,1.3,2.1,324.2,0.00,-4.9,4.6,"22:58:16",1
"18/01/23","23:10",0.0,-1.4,77.2,1006.7,308.0,1.3,1.9,318.8,0.00,-4.8,4.2,"23:01:12",1
"18/01/23","23:20",0.0,-1.4,78.1,1006.4,297.7,1.3,2.0,321.1,0.00,-4.7,4.3,"23:11:20",1
"18/01/23","23:30",0.0,-1.3,77.6,1006.4,317.0,1.5,1.8,329.1,0.00,-4.7,4.1,"23:24:08",1
"18/01/23","23:40",0.0,-1.0,75.2,1007.1,295.5,1.3,2.4,324.5,0.00,-4.8,4.2,"23:36:00",1
"18/01/23","23:50",0.0,-0.5,66.6,1006.7,266.7,1.3,2.8,229.7,0.00,-5.9,4.1,"23:49:12",1
"18/01/23","24:00",0.0,-0.2,62.7,1006.9,265.9,2.0,4.0,231.9,0.00,-6.4,4.0,"23:56:02",1
